Flag for Brazil Weather past 2 weeks in Uruguaiana, Rio Grande do Sul, Brazil

Now
63 °F

Passing clouds.


Feels Like: 63 °F
Forecast: 70 / 84 °F
Wind: 3 mph from West

Location: Pelotas Airport

Current Time: Feb 28, 2015 at 3:24:44 AM

Latest Report: Feb 28, 2015 at 3:00 AM


Visibility: N/A

Pressure: 30.01 "Hg

Humidity: 100%

Dew point: 63 °F

Location of UruguaianaLocation

Historic Weather in Uruguaiana — Graph

°F

Uruguaiana temperature yesterday

Maximum temperature yesterday: 84 °F (at 11:00 AM)
Minimum temperature yesterday: 68 °F (at 10:00 PM)
Average temperature yesterday: 75 °F

Past Weeks' High & Low Weather Summary

 TemperatureHumidityPressure
High90 °F (Feb 25, 1:00 PM)100% (Feb 13, 3:00 AM)30.12 "Hg (Feb 13, 3:00 AM)
Low63 °F (Feb 28, 2:00 AM)45% (Feb 14, 4:00 PM)29.65 "Hg (Feb 19, 1:00 PM)
Average75 °F85%29.94 "Hg
* Reported Feb 13 3:00 AM — Feb 28 2:00 AM, Uruguaiana, Weather by CustomWeather, © 2015

Note: Actual official high and low records may vary slightly from our data, if they occured in-between our weather recording intervals... More about our weather records

Advertising

Uruguaiana weather history for previous 24 hours

 ConditionsComfort  
Time TempWeatherWind HumidityBarometerVisibility
2:00 AM
Sat, Feb 28
63 °FClear.5 mph100%30.01 "Hg10 mi
1:00 AM64 °FClear.6 mph100%30.01 "Hg10 mi
12:00 AM68 °FClear.7 mph88%30.01 "Hg10 mi
11:00 PM
Fri, Feb 27
68 °FPassing clouds.5 mph88%30.01 "HgN/A
10:00 PM68 °FPassing clouds.9 mph88%29.98 "HgN/A
9:00 PM70 °FPassing clouds.6 mph73%29.98 "HgN/A
8:00 PM72 °FPassing clouds.6 mph69%29.95 "HgN/A
7:00 PM73 °FPassing clouds.9 mph69%29.92 "HgN/A
6:00 PM77 °FScattered clouds.17 mph61%29.89 "HgN/A
5:00 PM82 °FPassing clouds.15 mph45%29.89 "HgN/A
4:00 PM81 °FScattered clouds.15 mph62%29.86 "HgN/A
3:00 PM81 °FBroken clouds.14 mph66%29.86 "HgN/A
2:00 PM84 °FBroken clouds.13 mph66%29.86 "HgN/A
1:00 PM81 °FBroken clouds.13 mph74%29.86 "HgN/A
12:00 PM81 °FPartly sunny.18 mph79%29.86 "HgN/A
11:00 AM84 °FPartly sunny.13 mph70%29.83 "HgN/A
10:00 AM81 °FPartly sunny.16 mph79%29.83 "HgN/A
9:00 AM81 °FPartly sunny.12 mph84%29.83 "HgN/A
8:00 AM73 °FSunny.6 mph100%29.83 "Hg10 mi
7:00 AM72 °FSunny.6 mph100%29.80 "Hg10 mi
6:00 AM72 °FSunny.5 mph100%29.80 "Hg10 mi
5:00 AM70 °FClear.6 mph100%29.77 "Hg10 mi
4:00 AM72 °FPassing clouds.7 mph100%29.77 "HgN/A
3:00 AM72 °FClear.3 mph100%29.77 "Hg10 mi
Weather by CustomWeather, © 2015

See weather overviewHow to use our weather pages